Hourly Data Report for June 08, 2012

All times are specified in Local Standard Time (LST). Add 1 hour to adjust for Daylight Saving Time where and when it is observed.

MONCTON INTL A
NEW BRUNSWICK

46°06'44.000" N
64°40'43.000" W
70.70 m
8103201
71705
YQM

Download Data

Hourly Data (June 2012)
Hourly Data Report for June 8, 2012
Temp Definition
°C
Dew Point Temp Definition
°C
Rel Hum Definition
%
Wind Dir Definition
10's deg

Wind Spd Definition
km/h
Visibility Definition
km
Stn Press Definition
kPa
Hmdx Definition


Wind Chill Definition


Weather Definition


TIME
00:00 Legend Double Dagger 7.6 5.8 88 13 13 10.0 100.19     LegendNANA
01:00 Legend Double Dagger 7.1 5.3 88 16 10 10.0 100.15     LegendNANA
02:00 Legend Double Dagger 6.6 4.9 89 18 13 10.0 100.12     Clear
03:00 Legend Double Dagger 5.9 4.9 93 20 13 10.0 100.08     LegendNANA
04:00 Legend Double Dagger 5.8 5.4 97 21 15 10.0 100.07     LegendNANA
05:00 Legend Double Dagger 5.9 5.3 96 23 15 10.0 100.07     Mainly Clear
06:00 Legend Double Dagger 8.6 6.9 89 23 12 10.0 100.11     LegendNANA
07:00 Legend Double Dagger 11.3 8.4 82 23 19 10.0 100.11     LegendNANA
08:00 Legend Double Dagger 14.0 9.1 72 24 18 10.0 100.12     Mainly Clear
09:00 Legend Double Dagger 17.1 10.8 66 23 14 10.0 100.10     LegendNANA
10:00 Legend Double Dagger 19.1 10.8 58 23 14 10.0 100.08     LegendNANA
11:00 Legend Double Dagger 21.2 10.8 51 21 15 10.0 100.06     Mainly Clear
12:00 Legend Double Dagger 22.7 7.5 37 21 21 10.0 100.00     LegendNANA
13:00 Legend Double Dagger 23.2 4.9 30 24 18 10.0 99.94     LegendNANA
14:00 Legend Double Dagger 23.4 5.5 31 25 18 10.0 99.88     Mostly Cloudy
15:00 Legend Double Dagger 24.2 4.8 28 22 26 10.0 99.84     LegendNANA
16:00 Legend Double Dagger 21.5 6.0 36 22 24 10.0 99.79     LegendNANA
17:00 Legend Double Dagger 22.5 3.3 28 23 28 10.0 99.81     Mainly Clear
18:00 Legend Double Dagger 21.6 3.5 30 24 24 10.0 99.84     LegendNANA
19:00 Legend Double Dagger 17.6 6.3 47 23 26 10.0 99.88     LegendNANA
20:00 Legend Double Dagger 15.5 7.1 57 21 14 10.0 99.91     Mainly Clear
21:00 Legend Double Dagger 13.8 6.5 61 19 9 10.0 99.91     LegendNANA
22:00 Legend Double Dagger 9.9 7.5 85 13 15 10.0 99.93     LegendNANA
23:00 Legend Double Dagger 8.9 7.5 91 15 15 10.0 99.92     Mainly Clear

Notes on Data Quality.

Legend

  • E = Estimated
  • M = Missing
  • NA = Not Available
  • ‡ = Partner data that is not subject to review by the National Climate Archives
Date modified: